Regional Weather Roundup
Issued by NWS

Home | Current Version | Previous Version | Text Only | Print | Product List | Glossary Off
Versions: 1 2 3 4 5 6 7 8 9 10 11 12 13 14 15 16 17 18 19 20 21 22 23 24 25 26 27 28 29 30 31 32 33 34 35 36 37 38 39 40 41 42 43 44 45 46 47 48 49 50

000
ASUS44 KMEG 181900
RWRTN
TENNESSEE HOURLY STATE WEATHER ROUNDUP
NATIONAL WEATHER SERVICE MEMPHIS TN
200 PM CDT THU SEP 18 2014

TNZ002-004-019-021-049-052-054-088>092-182000-
WEST TENNESSEE

CITY           SKY/WX    TMP DP  RH WIND       PRES   REMARKS
MEMPHIS INTL   PTSUNNY   84  68  58 VRB3      29.94F
NWS MEMPHIS      N/A     79 N/A N/A MISG        N/A
JACKSON        CLOUDY    68  65  90 NE7       30.00F
DYERSBURG      PTSUNNY   68  55  64 NE6       30.01F
UNION CITY     PTSUNNY   70  59  68 NE7       30.00F
PARIS          MOSUNNY   72  57  60 E5        30.02F
LEXINGTON      CLOUDY    70  63  78 N3        29.99F
SAVANNAH       PTSUNNY   75  68  78 NE3       29.99F
$$

TNZ008-025-027-028-033-062-065-066-182000-
NORTH MIDDLE TENNESSEE

CITY           SKY/WX    TMP DP  RH WIND       PRES   REMARKS
NASHVILLE      CLOUDY    76  56  49 VRB3      30.02F
CLARKSVILLE    CLOUDY    75  55  49 E3        30.01F
COOKEVILLE     SUNNY     81  57  44 CALM      30.00F
CROSSVILLE     PTSUNNY   75  53  46 MISG      30.04F
$$

TNZ061-075-076-078-094-096-097-182000-
SOUTH MIDDLE TENNESSEE

CITY           SKY/WX    TMP DP  RH WIND       PRES   REMARKS
FAYETTEVILLE   MOSUNNY   77  57  50 E5        29.99F
TULLAHOMA      SUNNY     79  54  41 VRB6      30.00F
WINCHESTER     SUNNY     81  55  41 NW8       29.99F
COLUMBIA       MOSUNNY   79  63  57 CALM      29.98F
SHELBYVILLE    PTSUNNY   81  55  41 N3        30.00F
$$

TNZ017-018-042-046-047-182000-
NORTHEAST TENNESSEE

CITY           SKY/WX    TMP DP  RH WIND       PRES   REMARKS
TRI CITIES     MOSUNNY   76  48  37 VRB3      30.03F
ELIZABETHTON   CLOUDY    73  52  46 NW7       30.02F
$$

TNZ012-013-036-069-073-074-182000-
CENTRAL EAST TENNESSEE

CITY           SKY/WX    TMP DP  RH WIND       PRES   REMARKS
KNOXVILLE      CLOUDY    78  53  41 NW5       29.99F
OAK RIDGE      PTSUNNY   77  52  41 SE6       30.02F
GATLINBURG     CLEAR     77  55  47 NE7       29.99F
$$

TNZ083-085-099-182000-
SOUTHEAST TENNESSEE

CITY           SKY/WX    TMP DP  RH WIND       PRES   REMARKS
CHATTANOOGA    PTSUNNY   81  55  40 NW6       29.99F
$$

SKY/WX REPORTED AS FAIR MEANS FEW OR NO CLOUDS BELOW
12 THOUSAND FEET.



USA.gov is the U.S. government's official web portal to all federal, state and local government web resources and services.